Weather Roundup
Issued by NWS Corpus Christi, TX

Home | Current Version | Previous Version | Text Only | Print | Product List | Glossary On
Versions: 1 2 3 4 5 6 7 8 9 10 11 12 13 14 15 16 17 18 19 20 21 22 23 24 25 26 27 28 29 30 31 32 33 34 35 36 37 38 39 40 41 42 43 44 45 46 47 48 49 50
000
ASUS44 KCRP 240110
HRRCRP

SOUTH TEXAS REGIONAL WEATHER ROUNDUP
NATIONAL WEATHER SERVICE CORPUS CHRISTI TX
800 PM CDT SUN JUL 23 2017


TXZ229>244-240200-
...CORPUS CHRISTI AREA OBSERVATIONS...

CITY           SKY/WX    TMP DP  RH WIND       PRES   REMARKS
CORPUS CHRISTI CLEAR     86  75  69 SE21G30   29.86R HX  95
NAS CORPUS CHR CLEAR     86  78  77 SE17G28   29.87R HX  98
ROCKPORT       CLEAR     86  75  69 S13G25    29.86S HX  95
KINGSVILLE NAS CLEAR     88  77  69 SE18G25   29.85R HX 100
ALICE          LGT RAIN  89  73  59 SE21G28   29.83S HX  97
ORANGE GROVE   CLEAR     33  32  96 SE18G30   29.84S WCI  22
FALFURRIAS     CLEAR     93  63  36 SE13G20   29.84R HX  94
$$

...VICTORIA AREA OBSERVATIONS...

CITY           SKY/WX    TMP DP  RH WIND       PRES   REMARKS
VICTORIA       PTCLDY    88  73  61 S14       29.88R HX  95
BEEVILLE       FAIR      91  74  58 SE14G20   29.86R HX 100
PLEASANTON     CLEAR     89  64  43 NE7       29.85R HX  90
SAN ANTONIO    MOCLDY    87  62  43 NW6       29.86F
$$

...LAREDO AREA OBSERVATIONS...

CITY           SKY/WX    TMP DP  RH WIND       PRES   REMARKS
LAREDO         CLEAR    101  61  26 E14       29.81R HX 102
COTULLA        CLEAR     99  57  24 S9        29.79S HX  98
DEL RIO        MOCLDY    88  67  49 NE22G37   29.85R HX  91
MCALLEN        CLEAR     90  73  57 SE25G33   29.84R HX  98
HEBBRONVILLE   CLEAR     94  62  34 SE14      29.84S HX  95
$$

...OTHER TEXAS OBSERVATIONS...

CITY           SKY/WX    TMP DP  RH WIND       PRES   REMARKS
BROWNSVILLE    CLEAR     85  76  74 S21G26    29.88R HX  94
HOUSTON        MOCLDY    88  73  61 S7        29.89R HX  95
COL. STATION   CLOUDY    94  70  45 S14       29.85R HX 100
AUSTIN         MOCLDY    86  71  60 N5        29.85S HX  91
WACO           MOCLDY    91  70  49 SE8       29.84R HX  96
FORT WORTH     MOCLDY    94  71  47 S8        29.81R HX 101
WICHITA FALLS  CLEAR     95  64  35 E10       29.80S HX  97
LUBBOCK        CLOUDY    83  64  52 E6        29.99S
EL PASO        LGT RAIN  78  68  71 N8        29.99F
$$

...MARINE OBSERVATIONS...

STATION/POSITION TIME  SKY/WX   TEMP    WIND        PRES    VSBY  WAVE   SWELL
                                AIR SEA DIR/SP/G                  HT/PER HT/PER
                 (UTC)          (F)     (DEG/KT/KT) (MB)    (MI)  (FT/S) (FT/S)
PORT ARANSAS     0000            85 87  150/ 24/ 26 1011.5R
BUOY 90 E PORT A 0050            85 86  170/ 14/ 17 1013.1R         3/ 5
BUOY 45 SE BAFFI 0050            85     170/ 17/ 21 1011.4R         5/ 6
BUOY 200 E PT IS 2350            86 87  160/ 10/ 12 1013.9          3/ 5   2/ 5
BUOY 15 E GALVES 2350            86 87  210/ 16/ 17 1012.6          4/ 6   2/11
$$




USA.gov is the U.S. government's official web portal to all federal, state and local government web resources and services.